Pagrindinis puslapis
METAR-TAF:

METAR-TAF

Oro uostai :

Dakaras, Senegalas

platuma: 14-44N, ilguma: 017-30W, Aukštis: 27 m

Dabartinis oras

Ataskaita buvo paskelbta 3 valandos ir 8 minutes, ne 03:00 UTC
Vėjas 16 kt iš Šiaurės
Temperatūra 21°C
Drėgmė 73%
Slėgis 1013 hPa
Matomumas: 8000 m

METAR: GOOY 060300Z 36016KT 8000 NSC 21/16 Q1013

Laikas: 06:08 (06:08 UTC)

Prognozė

Ataskaita buvo paskelbta 38 minutes, ne 05:30 UTC
Prognozė galioja nuo 06 metu 06 UTC su 07 metu 12 UTC
Vėjas 14 kt iš Šiaurės
Matomumas 10 km arba daugiau
nėra debesų žemiau 1500 m ir nėra kamuolinių lietaus debesų

TAF: GOOY 060530Z 0606/0712 36014KT CAVOK

Orai ataskaitas ir orų prognozės (METAR, TAF).

turimą stotys yra geltonos ir raudonos taškus žemėlapyje.

Perkelti pele per norėdami pamatyti stoties vardą.

Tada spustelėkite, norėdami matyti oro stebėjimo ir prognozės.

Norėdami pakeisti žemėlapį: spustelėkite ant žalios mygtukų su juodo kryžiaus žemyn,; žalią mygtuką su brūkšneliu, jei norite nutolinti; arba žalių rodyklių gretimoms žemėlapius.


METAR-TAF: